User: anonymous   Login
Location: Bergnershof
(48.9468°N, 10.9431°E)
Time: 01:57:10
(UTC+00:00)
Language:

USA 306 - Orbit

View from above orbital plane
View from above orbital plane
View from above satellite
View from above satellite

Ground track
Ground track

The orbit data is extracted from the following two-line orbital elements,

1 45874U 20046B   21131.84544509 0.00002100  00000-0  17194-3 0    08
2 45874  53.9770  63.5607 0007086  17.4697 342.5302 14.98838148    06
Epoch (UTC): 11 May 2021 20:17:26
Eccentricity: 0.0007086
inclination: 53.9770°
perigee height: 565 km
apogee height: 575 km
right ascension of ascending node: 63.5607°
argument of perigee: 17.4697°
revolutions per day: 14.98838148
mean anomaly at epoch: 342.5302°
orbit number at epoch: 0

The dashed part of the orbit path shows where the satellite is in the earth's shadow,  

DLR